• In Österreich
  • Länderverzeichnis
  • Für 7 Tage
  • Wassertemperatur
  • Satellitenkarten
  • Wetterkarte
  • News
  • Widgets
  • user-avatar
    Anmelden

    Stündliche Wetter Bukawu

    Heute, 13 November, Dienstag

    Zeit Temperatur Niederschläge Wind Luftdruck Luftfeuchtigkeit
    00:00 +21°C° 0.2 mm 0 m/S 687 mmHg 91%
    01:00 +20°C° 0.2 mm 0 m/S 687 mmHg 92%
    02:00 +20°C° 0.2 mm 0 m/S 687 mmHg 94%
    03:00 +19°C° 0.5 mm 0 m/S 687 mmHg 95%
    04:00 +19°C° 0.5 mm 0 m/S 687 mmHg 96%
    05:00 +19°C° 0.5 mm 0 m/S 687 mmHg 97%
    06:00 +20°C° 0.4 mm 0 m/S 687 mmHg 94%
    07:00 +23°C° 0.4 mm 1 m/S 688 mmHg 92%
    08:00 +24°C° 0.4 mm 1 m/S 688 mmHg 90%
    09:00 +26°C° 0.7 mm 1 m/S 688 mmHg 85%
    10:00 +28°C° 0.7 mm 1 m/S 688 mmHg 80%
    11:00 +30°C° 0.7 mm 1 m/S 688 mmHg 75%
    12:00 +31°C° 0.2 mm 1 m/S 688 mmHg 65%
    13:00 +32°C° 0.2 mm 1 m/S 687 mmHg 55%
    14:00 +33°C° 0.2 mm 1 m/S 687 mmHg 45%
    15:00 +32°C° 0 mm 1 m/S 686 mmHg 51%
    16:00 +31°C° 0 mm 1 m/S 686 mmHg 57%
    17:00 +28°C° 0 mm 0 m/S 685 mmHg 64%
    18:00 +28°C° 0.1 mm 1 m/S 686 mmHg 69%
    19:00 +26°C° 0.1 mm 1 m/S 686 mmHg 75%
    20:00 +24°C° 0.1 mm 1 m/S 686 mmHg 81%
    21:00 +23°C° 0.8 mm 1 m/S 687 mmHg 86%
    22:00 +23°C° 0.8 mm 1 m/S 687 mmHg 90%
    23:00 +22°C° 0.8 mm 1 m/S 687 mmHg 95%

    Morgen, 14 November, Mittwoch

    Zeit Temperatur Niederschläge Wind Luftdruck Luftfeuchtigkeit
    00:00 +21°C° 0.2 mm 1 m/S 687 mmHg 96%
    01:00 +19°C° 0.2 mm 0 m/S 686 mmHg 96%
    02:00 +19°C° 0.2 mm 0 m/S 686 mmHg 97%
    03:00 +19°C° 0 mm 0 m/S 686 mmHg 97%
    04:00 +21°C° 0 mm 1 m/S 685 mmHg 97%
    05:00 +20°C° 0 mm 1 m/S 685 mmHg 98%
    06:00 +22°C° 0 mm 1 m/S 686 mmHg 94%
    07:00 +23°C° 0 mm 1 m/S 686 mmHg 91%
    08:00 +24°C° 0 mm 1 m/S 687 mmHg 87%
    09:00 +27°C° 0 mm 1 m/S 687 mmHg 72%
    10:00 +30°C° 0 mm 2 m/S 688 mmHg 57%
    11:00 +34°C° 0 mm 2 m/S 688 mmHg 42%
    12:00 +35°C° 0 mm 2 m/S 687 mmHg 39%
    13:00 +36°C° 0 mm 2 m/S 686 mmHg 36%
    14:00 +36°C° 0 mm 2 m/S 685 mmHg 34%
    15:00 +34°C° 0 mm 1 m/S 685 mmHg 41%
    16:00 +32°C° 0 mm 1 m/S 685 mmHg 48%
    17:00 +30°C° 0 mm 1 m/S 684 mmHg 55%
    18:00 +28°C° 0.1 mm 1 m/S 685 mmHg 61%
    19:00 +27°C° 0.1 mm 1 m/S 685 mmHg 67%
    20:00 +25°C° 0.1 mm 1 m/S 686 mmHg 73%
    21:00 +24°C° 0.2 mm 1 m/S 686 mmHg 78%
    22:00 +23°C° 0.2 mm 1 m/S 686 mmHg 84%
    23:00 +22°C° 0.2 mm 1 m/S 686 mmHg 89%

    übermorgen, 15 November, Donnerstag

    Zeit Temperatur Niederschläge Wind Luftdruck Luftfeuchtigkeit
    00:00 +22°C° 0 mm 1 m/S 686 mmHg 91%
    01:00 +21°C° 0 mm 1 m/S 685 mmHg 93%
    02:00 +21°C° 0 mm 1 m/S 685 mmHg 94%
    03:00 +21°C° 0.3 mm 1 m/S 685 mmHg 95%
    04:00 +20°C° 0.3 mm 1 m/S 685 mmHg 96%
    05:00 +18°C° 0.3 mm 0 m/S 686 mmHg 97%
    06:00 +21°C° 0.3 mm 1 m/S 686 mmHg 94%
    07:00 +23°C° 0.3 mm 1 m/S 687 mmHg 90%
    08:00 +24°C° 0.3 mm 1 m/S 688 mmHg 87%
    09:00 +27°C° 0 mm 1 m/S 689 mmHg 73%
    10:00 +30°C° 0 mm 1 m/S 689 mmHg 59%
    11:00 +33°C° 0 mm 1 m/S 689 mmHg 46%
    12:00 +33°C° 0 mm 1 m/S 688 mmHg 48%
    13:00 +30°C° 0 mm 0 m/S 687 mmHg 51%
    14:00 +29°C° 0 mm 0 m/S 686 mmHg 54%
    15:00 +28°C° 1 mm 0 m/S 686 mmHg 63%
    16:00 +26°C° 1 mm 0 m/S 685 mmHg 72%
    17:00 +25°C° 1 mm 0 m/S 685 mmHg 81%
    18:00 +25°C° 2.1 mm 1 m/S 685 mmHg 86%
    19:00 +24°C° 2.1 mm 1 m/S 686 mmHg 92%
    20:00 +23°C° 2.1 mm 1 m/S 687 mmHg 97%
    21:00 +22°C° 0.9 mm 1 m/S 687 mmHg 97%
    22:00 +22°C° 0.9 mm 1 m/S 687 mmHg 98%
    23:00 +22°C° 0.9 mm 1 m/S 688 mmHg 98%

    16 November, Freitag

    Zeit Temperatur Niederschläge Wind Luftdruck Luftfeuchtigkeit
    00:00 +22°C° 0.7 mm 1 m/S 687 mmHg 99%
    01:00 +22°C° 0.7 mm 1 m/S 687 mmHg 99%
    02:00 +19°C° 0.7 mm 0 m/S 687 mmHg 99%
    03:00 +19°C° 1.3 mm 0 m/S 687 mmHg 99%
    04:00 +19°C° 1.3 mm 0 m/S 687 mmHg 99%
    05:00 +19°C° 1.3 mm 0 m/S 688 mmHg 99%
    06:00 +20°C° 0.1 mm 0 m/S 688 mmHg 98%
    07:00 +20°C° 0.1 mm 0 m/S 689 mmHg 98%
    08:00 +23°C° 0.1 mm 1 m/S 690 mmHg 97%
    09:00 +24°C° 0.8 mm 1 m/S 690 mmHg 92%
    10:00 +26°C° 0.8 mm 1 m/S 690 mmHg 88%
    11:00 +27°C° 0.8 mm 1 m/S 689 mmHg 84%
    12:00 +27°C° 1.2 mm 1 m/S 689 mmHg 85%
    13:00 +27°C° 1.2 mm 1 m/S 688 mmHg 86%
    14:00 +27°C° 1.2 mm 1 m/S 687 mmHg 87%
    15:00 +27°C° 0.8 mm 1 m/S 687 mmHg 89%
    16:00 +26°C° 0.8 mm 1 m/S 687 mmHg 91%
    17:00 +25°C° 0.8 mm 1 m/S 687 mmHg 93%
    18:00 +24°C° 0.1 mm 1 m/S 688 mmHg 94%
    19:00 +22°C° 0.1 mm 0 m/S 688 mmHg 96%
    20:00 +21°C° 0.1 mm 0 m/S 688 mmHg 98%
    21:00 +21°C° 0.1 mm 0 m/S 689 mmHg 97%
    22:00 +20°C° 0.1 mm 0 m/S 689 mmHg 97%
    23:00 +20°C° 0.1 mm 0 m/S 689 mmHg 97%

    17 November, Samstag

    Zeit Temperatur Niederschläge Wind Luftdruck Luftfeuchtigkeit
    00:00 +20°C° 0.9 mm 0 m/S 688 mmHg 98%
    01:00 +20°C° 0.9 mm 0 m/S 688 mmHg 98%
    02:00 +20°C° 0.9 mm 0 m/S 688 mmHg 98%
    03:00 +19°C° 0.5 mm 0 m/S 688 mmHg 98%
    04:00 +19°C° 0.5 mm 0 m/S 688 mmHg 98%
    05:00 +19°C° 0.5 mm 0 m/S 688 mmHg 98%
    06:00 +20°C° 0 mm 0 m/S 689 mmHg 97%
    07:00 +21°C° 0 mm 0 m/S 689 mmHg 96%
    08:00 +21°C° 0 mm 0 m/S 690 mmHg 94%
    09:00 +23°C° 1.1 mm 0 m/S 690 mmHg 91%
    10:00 +24°C° 1.1 mm 0 m/S 690 mmHg 88%
    11:00 +25°C° 1.1 mm 0 m/S 690 mmHg 85%
    12:00 +25°C° 1.1 mm 0 m/S 689 mmHg 85%
    13:00 +25°C° 1.1 mm 0 m/S 688 mmHg 85%
    14:00 +25°C° 1.1 mm 0 m/S 687 mmHg 85%
    15:00 +24°C° 0.1 mm 0 m/S 687 mmHg 85%
    16:00 +24°C° 0.1 mm 0 m/S 687 mmHg 84%
    17:00 +24°C° 0.1 mm 0 m/S 687 mmHg 84%
    18:00 +23°C° 0.1 mm 0 m/S 688 mmHg 87%
    19:00 +22°C° 0.1 mm 0 m/S 688 mmHg 90%
    20:00 +20°C° 0.1 mm 0 m/S 688 mmHg 93%
    21:00 +20°C° 0 mm 0 m/S 688 mmHg 93%
    22:00 +20°C° 0 mm 0 m/S 688 mmHg 93%
    23:00 +20°C° 0 mm 0 m/S 688 mmHg 93%

    18 November, Sonntag

    Zeit Temperatur Niederschläge Wind Luftdruck Luftfeuchtigkeit
    00:00 +19°C° 0.2 mm 0 m/S 688 mmHg 94%
    01:00 +19°C° 0.2 mm 0 m/S 687 mmHg 95%
    02:00 +21°C° 0.2 mm 1 m/S 687 mmHg 97%
    03:00 +21°C° 0.1 mm 1 m/S 687 mmHg 97%
    04:00 +20°C° 0.1 mm 1 m/S 687 mmHg 97%
    05:00 +18°C° 0.1 mm 0 m/S 687 mmHg 97%
    06:00 +21°C° 0 mm 1 m/S 688 mmHg 94%
    07:00 +22°C° 0 mm 1 m/S 688 mmHg 91%
    08:00 +23°C° 0 mm 1 m/S 689 mmHg 88%
    09:00 +27°C° 0 mm 1 m/S 689 mmHg 73%
    10:00 +30°C° 0 mm 2 m/S 689 mmHg 57%
    11:00 +34°C° 0 mm 2 m/S 689 mmHg 41%
    12:00 +34°C° 0 mm 2 m/S 688 mmHg 40%
    13:00 +35°C° 0 mm 2 m/S 688 mmHg 38%
    14:00 +35°C° 0 mm 2 m/S 687 mmHg 37%
    15:00 +32°C° 0 mm 2 m/S 687 mmHg 45%
    16:00 +31°C° 0 mm 1 m/S 686 mmHg 53%
    17:00 +29°C° 0 mm 1 m/S 686 mmHg 61%
    18:00 +27°C° 0 mm 1 m/S 686 mmHg 66%
    19:00 +26°C° 0 mm 1 m/S 687 mmHg 72%
    20:00 +24°C° 0 mm 1 m/S 687 mmHg 78%
    21:00 +24°C° 0 mm 1 m/S 687 mmHg 79%
    22:00 +23°C° 0 mm 1 m/S 687 mmHg 81%
    23:00 +23°C° 0 mm 1 m/S 687 mmHg 83%
    Mehr zeigen